Location: Newark
(7.0858°N, 171.3717°E)
Time: 02:51:49
(UTC+00:00)

Hubble Space Telescope - Pass Details

Date: 26 September 2021
Orbit: 535 x 538 km, 28.5° (Epoch: 15 October)

Event Time Altitude Azimuth Distance (km) Brightness Sun altitude
Rises 08:12:24 0° 281° (W) 2,665 5.6 -26.6°
Reaches altitude 10° 08:14:55 10° 268° (W) 1,776 4.4 -27.2°
Enters shadow 08:17:58 25° 221° (SW) 1,089 2.6 -28.0°
